When you browse on this site, cookies collect data to enhance your experience and personalize the content and advertising you see.
Visit our Privacy Policy to learn more. By continuing to use the site, you agree to this use of cookies and data.
  • In Switzerland
  • List of Countries
  • For 7 days
  • Water Temperature
  • Satellite Maps
  • Weather Map
  • Weather Widgets
  • user-avatar
    Login

    Hourly Weather Álftanes

    Today, 14 December, Friday

    Time Temperature Precipitation Wind Pressure Humidity
    00:00 +5°C° 0.2 mm 5 mps 757 mmHg 89%
    01:00 +5°C° 0.2 mm 5 mps 757 mmHg 89%
    02:00 +4°C° 0.2 mm 6 mps 757 mmHg 89%
    03:00 +4°C° 0 mm 6 mps 757 mmHg 89%
    04:00 +4°C° 0 mm 6 mps 757 mmHg 89%
    05:00 +5°C° 0 mm 5 mps 757 mmHg 88%
    06:00 +4°C° 0 mm 6 mps 757 mmHg 88%
    07:00 +4°C° 0 mm 6 mps 756 mmHg 88%
    08:00 +4°C° 0 mm 6 mps 756 mmHg 88%
    09:00 +5°C° 0 mm 6 mps 756 mmHg 87%
    10:00 +5°C° 0 mm 6 mps 756 mmHg 87%
    11:00 +6°C° 0 mm 7 mps 756 mmHg 87%
    12:00 +7°C° 0.2 mm 6 mps 756 mmHg 87%
    13:00 +7°C° 0.2 mm 6 mps 755 mmHg 88%
    14:00 +7°C° 0.2 mm 6 mps 755 mmHg 89%
    15:00 +7°C° 0.3 mm 6 mps 754 mmHg 89%
    16:00 +7°C° 0.3 mm 6 mps 754 mmHg 89%
    17:00 +7°C° 0.3 mm 6 mps 754 mmHg 90%
    18:00 +6°C° 0.4 mm 7 mps 753 mmHg 90%
    19:00 +8°C° 0.4 mm 7 mps 753 mmHg 90%
    20:00 +8°C° 0.4 mm 7 mps 753 mmHg 90%
    21:00 +8°C° 0.5 mm 7 mps 752 mmHg 90%
    22:00 +8°C° 0.5 mm 7 mps 752 mmHg 90%
    23:00 +7°C° 0.5 mm 8 mps 751 mmHg 90%

    Tomorrow, 15 December, Saturday

    Time Temperature Precipitation Wind Pressure Humidity
    00:00 +8°C° 1.7 mm 7 mps 750 mmHg 91%
    01:00 +8°C° 1.7 mm 7 mps 749 mmHg 92%
    02:00 +8°C° 1.7 mm 6 mps 748 mmHg 93%
    03:00 +9°C° 3.6 mm 6 mps 747 mmHg 93%
    04:00 +9°C° 3.6 mm 6 mps 747 mmHg 94%
    05:00 +9°C° 3.6 mm 5 mps 746 mmHg 94%
    06:00 +9°C° 1.3 mm 6 mps 745 mmHg 94%
    07:00 +9°C° 1.3 mm 6 mps 743 mmHg 93%
    08:00 +10°C° 1.3 mm 7 mps 742 mmHg 92%
    09:00 +10°C° 2 mm 7 mps 741 mmHg 93%
    10:00 +10°C° 2 mm 7 mps 739 mmHg 93%
    11:00 +11°C° 2 mm 6 mps 738 mmHg 93%
    12:00 +11°C° 2.3 mm 6 mps 737 mmHg 93%
    13:00 +11°C° 2.3 mm 6 mps 736 mmHg 93%
    14:00 +11°C° 2.3 mm 6 mps 735 mmHg 93%
    15:00 +9°C° 1.6 mm 6 mps 735 mmHg 91%
    16:00 +8°C° 1.6 mm 7 mps 735 mmHg 89%
    17:00 +5°C° 1.6 mm 7 mps 736 mmHg 86%
    18:00 +5°C° 0.5 mm 7 mps 737 mmHg 84%
    19:00 +5°C° 0.5 mm 7 mps 738 mmHg 83%
    20:00 +4°C° 0.5 mm 7 mps 740 mmHg 81%
    21:00 +4°C° 0 mm 6 mps 741 mmHg 81%
    22:00 +4°C° 0 mm 6 mps 741 mmHg 80%
    23:00 +4°C° 0 mm 6 mps 742 mmHg 80%

    Day after tomorrow, 16 December, Sunday

    Time Temperature Precipitation Wind Pressure Humidity
    00:00 +5°C° 0 mm 5 mps 743 mmHg 81%
    01:00 +3°C° 0 mm 5 mps 743 mmHg 82%
    02:00 +3°C° 0 mm 5 mps 744 mmHg 83%
    03:00 +4°C° 0 mm 4 mps 744 mmHg 84%
    04:00 +3°C° 0 mm 4 mps 744 mmHg 85%
    05:00 +3°C° 0 mm 4 mps 744 mmHg 87%
    06:00 +3°C° 0 mm 4 mps 744 mmHg 87%
    07:00 +3°C° 0 mm 4 mps 744 mmHg 88%
    08:00 +3°C° 0 mm 4 mps 745 mmHg 89%
    09:00 +4°C° 0 mm 4 mps 745 mmHg 86%
    10:00 +5°C° 0 mm 4 mps 745 mmHg 83%
    11:00 +5°C° 0 mm 5 mps 745 mmHg 80%
    12:00 +5°C° 0.1 mm 4 mps 745 mmHg 80%
    13:00 +5°C° 0.1 mm 4 mps 745 mmHg 81%
    14:00 +5°C° 0.1 mm 4 mps 745 mmHg 81%
    15:00 +5°C° 0 mm 4 mps 746 mmHg 83%
    16:00 +4°C° 0 mm 4 mps 747 mmHg 85%
    17:00 +4°C° 0 mm 4 mps 747 mmHg 87%
    18:00 +4°C° 0 mm 4 mps 748 mmHg 88%
    19:00 +3°C° 0 mm 3 mps 748 mmHg 88%
    20:00 +3°C° 0 mm 3 mps 749 mmHg 89%
    21:00 +3°C° 0 mm 3 mps 749 mmHg 90%
    22:00 +3°C° 0 mm 3 mps 750 mmHg 90%
    23:00 +3°C° 0 mm 3 mps 750 mmHg 90%

    17 December, Monday

    Time Temperature Precipitation Wind Pressure Humidity
    00:00 +2°C° 0 mm 3 mps 751 mmHg 91%
    01:00 +2°C° 0 mm 3 mps 751 mmHg 91%
    02:00 +2°C° 0 mm 3 mps 751 mmHg 91%
    03:00 +2°C° 0 mm 3 mps 751 mmHg 91%
    04:00 +2°C° 0 mm 3 mps 751 mmHg 90%
    05:00 +1°C° 0 mm 4 mps 751 mmHg 89%
    06:00 +3°C° 0 mm 4 mps 751 mmHg 89%
    07:00 +3°C° 0 mm 5 mps 750 mmHg 88%
    08:00 +3°C° 0 mm 5 mps 750 mmHg 87%
    09:00 +5°C° 0.1 mm 6 mps 749 mmHg 86%
    10:00 +6°C° 0.1 mm 7 mps 749 mmHg 85%
    11:00 +7°C° 0.1 mm 8 mps 748 mmHg 84%
    12:00 +9°C° 0.5 mm 8 mps 747 mmHg 85%
    13:00 +8°C° 0.5 mm 9 mps 745 mmHg 86%
    14:00 +8°C° 0.5 mm 9 mps 744 mmHg 87%
    15:00 +9°C° 1.7 mm 10 mps 743 mmHg 87%
    16:00 +9°C° 1.7 mm 10 mps 743 mmHg 88%
    17:00 +9°C° 1.7 mm 10 mps 742 mmHg 88%
    18:00 +9°C° 2.9 mm 8 mps 742 mmHg 89%
    19:00 +8°C° 2.9 mm 6 mps 742 mmHg 91%
    20:00 +7°C° 2.9 mm 4 mps 742 mmHg 93%
    21:00 +7°C° 0.9 mm 4 mps 741 mmHg 93%
    22:00 +7°C° 0.9 mm 4 mps 741 mmHg 93%
    23:00 +7°C° 0.9 mm 4 mps 740 mmHg 92%

    18 December, Tuesday

    Time Temperature Precipitation Wind Pressure Humidity
    00:00 +6°C° 2 mm 4 mps 740 mmHg 93%
    01:00 +7°C° 2 mm 3 mps 739 mmHg 94%
    02:00 +5°C° 2 mm 3 mps 738 mmHg 95%
    03:00 +6°C° 1.2 mm 2 mps 737 mmHg 94%
    04:00 +5°C° 1.2 mm 2 mps 737 mmHg 94%
    05:00 +5°C° 1.2 mm 2 mps 736 mmHg 93%
    06:00 +5°C° 0.1 mm 2 mps 736 mmHg 93%
    07:00 +4°C° 0.1 mm 3 mps 736 mmHg 93%
    08:00 +4°C° 0.1 mm 3 mps 737 mmHg 93%
    09:00 +5°C° 0 mm 4 mps 737 mmHg 91%
    10:00 +6°C° 0 mm 4 mps 737 mmHg 88%
    11:00 +6°C° 0 mm 5 mps 738 mmHg 86%
    12:00 +6°C° 0.2 mm 4 mps 738 mmHg 85%
    13:00 +6°C° 0.2 mm 4 mps 738 mmHg 84%
    14:00 +6°C° 0.2 mm 4 mps 738 mmHg 84%
    15:00 +5°C° 0.1 mm 4 mps 738 mmHg 85%
    16:00 +5°C° 0.1 mm 4 mps 738 mmHg 85%
    17:00 +4°C° 0.1 mm 4 mps 739 mmHg 86%
    18:00 +3°C° 0.3 mm 5 mps 739 mmHg 86%
    19:00 +3°C° 0.3 mm 5 mps 739 mmHg 86%
    20:00 +3°C° 0.3 mm 6 mps 739 mmHg 85%
    21:00 +3°C° 0 mm 6 mps 739 mmHg 85%
    22:00 +3°C° 0 mm 6 mps 740 mmHg 85%
    23:00 +3°C° 0 mm 5 mps 740 mmHg 85%

    19 December, Wednesday

    Time Temperature Precipitation Wind Pressure Humidity
    00:00 +3°C° 0 mm 5 mps 740 mmHg 85%
    01:00 +3°C° 0 mm 5 mps 740 mmHg 84%
    02:00 +3°C° 0 mm 5 mps 740 mmHg 84%
    03:00 +3°C° 0 mm 6 mps 740 mmHg 84%
    04:00 +3°C° 0 mm 6 mps 739 mmHg 83%
    05:00 +3°C° 0 mm 6 mps 739 mmHg 82%
    06:00 +3°C° 0.8 mm 6 mps 739 mmHg 83%
    07:00 +4°C° 0.8 mm 7 mps 738 mmHg 85%
    08:00 +4°C° 0.8 mm 7 mps 738 mmHg 86%
    09:00 +5°C° 0.9 mm 7 mps 738 mmHg 86%
    10:00 +5°C° 0.9 mm 7 mps 738 mmHg 86%
    11:00 +5°C° 0.9 mm 7 mps 737 mmHg 86%
    12:00 +5°C° 0.6 mm 7 mps 737 mmHg 85%
    13:00 +5°C° 0.6 mm 7 mps 737 mmHg 83%
    14:00 +5°C° 0.6 mm 7 mps 737 mmHg 81%
    15:00 +5°C° 0.5 mm 6 mps 737 mmHg 82%
    16:00 +5°C° 0.5 mm 6 mps 737 mmHg 84%
    17:00 +5°C° 0.5 mm 6 mps 737 mmHg 85%
    18:00 +5°C° 0.4 mm 6 mps 737 mmHg 85%
    19:00 +5°C° 0.4 mm 5 mps 737 mmHg 86%
    20:00 +5°C° 0.4 mm 5 mps 738 mmHg 86%
    21:00 +5°C° 0.4 mm 5 mps 738 mmHg 86%
    22:00 +5°C° 0.4 mm 5 mps 738 mmHg 86%
    23:00 +5°C° 0.4 mm 5 mps 739 mmHg 85%
    Show more